Miscellaneous Local Product
Issued by NWS North Platte, NE

Home | Current Version | Previous Version | Graphics & Text | Print | Product List | Glossary On
Versions: 1 2 3 4 5 6 7 8 9 10 11 12 13 14 15 16 17 18 19 20 21 22 23 24 25 26 27 28 29 30 31 32 33 34 35 36 37 38 39 40 41 42 43 44 45 46 47 48 49 50
496
AXUS43 KLBF 122110
MISLBF


WESTERN AND NORTH CENTRAL NEBRASKA HOURLY WEATHER ROUNDUP
NATIONAL WEATHER SERVICE NORTH PLATTE NE
300 PM CST TUE DEC 12 2017

NOTE: "FAIR" INDICATES FEW OR NO CLOUDS BELOW 12,000 FEET WITH NO
SIGNIFICANT WEATHER AND/OR OBSTRUCTIONS TO VISIBILITY.

NOTE: STATIONS NOT REPORTING VARIABLES SUCH AS SKY/WEATHER OR
PRESSURE ARE PROVIDED BY RAWS AND APRS NETWORKS AND ARE NOT UNDER
NATIONAL WEATHER SERVICE QUALITY CONTROL.

...OBSERVATIONS IN AND NEAR THE EASTERN PANHANDLE OF NEBRASKA...

CITY           SKY/WX    TMP DP  RH WIND       PRES   REMARKS
PINE RIDGE     PTSUNNY   56  24  29 SW8       30.02F
GORDON         FAIR      57  20  23 W12G17    30.03F
CHADRON        SUNNY     65  21  18 W12       30.02F
ALLIANCE       SUNNY     65  17  15 NW16      30.06F
SIDNEY         SUNNY     65  15  14 NW21G29   30.12F
CRESCENT LAKE    N/A     63  19  18 W13         N/A
$$

...OBSERVATIONS IN NORTHERN NEBRASKA AND FAR SOUTHERN SOUTH DAKOTA...

CITY           SKY/WX    TMP DP  RH WIND       PRES   REMARKS
WINNER         FAIR      60  17  18 W14       29.95F
VALENTINE      SUNNY     60  18  19 W15       29.99F
THEDFORD       SUNNY     61  23  23 W13       30.03F
AINSWORTH      SUNNY     56  21  25 W10       30.00F
O`NEILL        SUNNY     52  20  29 SW10      30.00F
ORD            SUNNY     51  18  27 SW9       30.04F
BROKEN BOW     SUNNY     54  16  22 SW10      30.05F
VALENTINE NWR    N/A     57  18  21 W9          N/A
HALSEY           N/A     58  18  21 W6G13       N/A
BUTTE            N/A     51  23  33 W8G17       N/A
CHAMBERS         N/A     51  26  37 W7          N/A
EWING            N/A     49  26  40 SW8         N/A
$$

...OBSERVATIONS IN SOUTHWEST NEBRASKA AND FAR NORTHEAST COLORADO...

CITY           SKY/WX    TMP DP  RH WIND       PRES   REMARKS
WRAY           FAIR      64  14  14 NW9       30.14F
HOLYOKE        FAIR      68  16  13 NW8       30.12F
IMPERIAL       SUNNY     64  17  16 NW9       30.10F
OGALLALA       SUNNY     63  17  16 W17       30.08F
NORTH PLATTE   SUNNY     59  21  23 W9        30.07F
MCCOOK         SUNNY     57  21  24 W10       30.10F
LEXINGTON      SUNNY     54  20  26 W6        30.08F
STAPLETON        N/A     57  25  29 CALM        N/A
GOTHENBURG       N/A     57  21  24 W3          N/A
CALLAWAY         N/A     54  26  33 W12         N/A
$$

...OBSERVATIONS IN CENTRAL LINCOLN COUNTY AREA...

CITY           SKY/WX    TMP DP  RH WIND       PRES   REMARKS
N.P. AIRPORT   SUNNY     59  21  23 W9        30.07F
N.P. DOWNTOWN    N/A     57  25  29 CALM        N/A
N.P. SOUTHEAST   N/A     58  24  27 W3          N/A
N.P. HILLCREST   N/A     58  26  29 SW7         N/A
$$

...SOME OBSERVATIONS FROM AROUND THE REGION...

CITY           SKY/WX    TMP DP  RH WIND       PRES   REMARKS
DENVER         MOSUNNY   68  13  12 N3        30.19F
GRAND JUNCTION SUNNY     51  13  21 CALM      30.39F
LARAMIE        SUNNY     56  10  16 W22       30.28F
CHEYENNE       SUNNY     60  13  15 NW24      30.21F
CASPER         SUNNY     47  18  31 SW26G35   30.21F
BISMARCK       SUNNY     53  28  38 W12       29.81F
RAPID CITY     SUNNY     60  15  17 S6        29.99F
PIERRE         SUNNY     55  27  34 W14       29.91F
SIOUX FALLS    MOSUNNY   41  30  65 W9        29.98F
OMAHA          MOSUNNY   39  24  55 S5        30.11F
GRAND ISLAND   SUNNY     52  21  29 W10       30.08F
SCOTTSBLUFF    SUNNY     65  16  15 W16G22    30.10F
KANSAS CITY    MOSUNNY   39  21  48 W10       30.18F WCI  32
HILL CITY      SUNNY     61  20  20 VRB7      30.13F
WICHITA        SUNNY     53  29  39 SW12      30.22F
DODGE CITY     SUNNY     61  14  16 W13       30.18F
OKLAHOMA CITY  MOSUNNY   48  26  42 NW8       30.29F
DALLAS         SUNNY     57  25  29 NW10      30.30F
AMARILLO       SUNNY     61  10  13 W14G24    30.28F
$$




USA.gov is the U.S. government's official web portal to all federal, state and local government web resources and services.